| time (UTC) | temp C | wind direction | speed KPH | gust KPH | rain 1hr cm | rain 24hr cm | rain mn cm | humidity % | barometer mb |
| 20260507155418 | 11 | 206 | 0.0 | 0.0 | 0.00 | 1.02 | 1.02 | 58 | 1000.1 |
| 20260507154915 | 11 | 336 | 0.0 | 8.0 | 0.00 | 1.02 | 1.02 | 56 | 1000.1 |
| 20260507154412 | 12 | 37 | 3.2 | 12.9 | 0.00 | 1.02 | 1.02 | 55 | 1000.4 |
| 20260507153909 | 12 | 174 | 0.0 | 0.0 | 0.00 | 1.02 | 1.02 | 61 | 1000.4 |
| 20260507153405 | 12 | 251 | 6.4 | 8.0 | 0.00 | 1.02 | 1.02 | 67 | 1000.4 |
| 20260507152902 | 11 | 183 | 0.0 | 3.2 | 0.00 | 1.02 | 1.02 | 69 | 1000.4 |
| 20260507152358 | 11 | 41 | 3.2 | 8.0 | 0.00 | 1.02 | 1.02 | 66 | 1000.4 |
| 20260507151854 | 11 | 21 | 3.2 | 8.0 | 0.00 | 1.02 | 1.02 | 67 | 1000.4 |
| 20260507151351 | 11 | 21 | 1.6 | 3.2 | 0.00 | 1.02 | 1.02 | 67 | 1000.4 |
| 20260507150848 | 11 | 232 | 4.8 | 8.0 | 0.00 | 1.02 | 1.02 | 68 | 1000.4 |
| 20260507150344 | 11 | 223 | 0.0 | 8.0 | 0.00 | 1.02 | 1.02 | 69 | 1000.4 |
| 20260507145840 | 11 | 220 | 4.8 | 8.0 | 0.00 | 1.02 | 1.02 | 70 | 1000.4 |
| 20260507145338 | 11 | 198 | 0.0 | 0.0 | 0.00 | 1.02 | 1.02 | 74 | 1000.4 |
| 20260507144834 | 11 | 20 | 0.0 | 0.0 | 0.00 | 1.02 | 1.02 | 73 | 1000.4 |
| 20260507144331 | 10 | 3 | 0.0 | 0.0 | 0.00 | 1.02 | 1.02 | 74 | 1000.4 |
| 20260507143828 | 11 | 344 | 0.0 | 8.0 | 0.00 | 1.02 | 1.02 | 73 | 1000.9 |
| 20260507143325 | 10 | 30 | 6.4 | 8.0 | 0.00 | 1.02 | 1.02 | 75 | 1000.4 |
| 20260507142821 | 10 | 228 | 3.2 | 8.0 | 0.00 | 1.02 | 1.02 | 78 | 1000.9 |
| 20260507142318 | 10 | 162 | 0.0 | 3.2 | 0.00 | 1.02 | 1.02 | 79 | 1000.9 |
| 20260507141814 | 10 | 121 | 0.0 | 0.0 | 0.00 | 1.02 | 1.02 | 79 | 1001.2 |
| 20260507141311 | 8 | 167 | 0.0 | 8.0 | 0.00 | 1.02 | 1.02 | 86 | 1001.2 |
| 20260507140807 | 8 | 245 | 0.0 | 0.0 | 0.00 | 1.02 | 1.02 | 88 | 1001.2 |
| 20260507140305 | 7 | 252 | 0.0 | 0.0 | 0.00 | 1.02 | 1.02 | 91 | 1001.2 |
| 20260507135802 | 7 | 224 | 0.0 | 0.0 | 0.00 | 1.02 | 1.02 | 91 | 1001.2 |
| 20260507135259 | 8 | 228 | 0.0 | 0.0 | 0.00 | 1.02 | 1.02 | 92 | 1001.2 |
| 20260507134755 | 7 | 140 | 0.0 | 0.0 | 0.00 | 1.02 | 1.02 | 92 | 1001.2 |
| 20260507134252 | 7 | 100 | 0.0 | 3.2 | 0.00 | 1.02 | 1.02 | 92 | 1001.2 |
| 20260507133748 | 7 | 196 | 0.0 | 0.0 | 0.00 | 1.02 | 1.02 | 92 | 1001.6 |
| 20260507133244 | 7 | 220 | 0.0 | 0.0 | 0.00 | 1.02 | 1.02 | 92 | 1001.2 |
| 20260507132742 | 7 | 206 | 0.0 | 0.0 | 0.00 | 1.02 | 1.02 | 92 | 1001.6 |
| 20260507132239 | 6 | 334 | 0.0 | 0.0 | 0.00 | 1.02 | 1.02 | 92 | 1000.9 |
| 20260507131736 | 7 | 255 | 0.0 | 0.0 | 0.00 | 1.02 | 1.02 | 92 | 1000.4 |
| 20260507131233 | 7 | 220 | 0.0 | 0.0 | 0.00 | 1.02 | 1.02 | 92 | 1000.9 |
| 20260507130729 | 6 | 196 | 0.0 | 0.0 | 0.00 | 1.02 | 1.02 | 92 | 1001.2 |
| 20260507130227 | 6 | 90 | 0.0 | 3.2 | 0.00 | 1.02 | 1.02 | 92 | 1001.6 |
| 20260507125726 | 6 | 235 | 1.6 | 8.0 | 0.00 | 1.02 | 1.02 | 93 | 1001.6 |
| 20260507125223 | 6 | 185 | 0.0 | 0.0 | 0.00 | 1.02 | 1.02 | 93 | 1001.2 |
| 20260507124720 | 6 | 167 | 0.0 | 0.0 | 0.00 | 1.02 | 1.02 | 93 | 1001.2 |
| 20260507124217 | 6 | 285 | 0.0 | 0.0 | 0.00 | 1.02 | 1.02 | 93 | 1001.2 |
| 20260507123715 | 6 | 223 | 0.0 | 0.0 | 0.00 | 1.02 | 1.02 | 93 | 1001.2 |
| 20260507123212 | 6 | 17 | 0.0 | 0.0 | 0.00 | 1.02 | 1.02 | 93 | 1001.2 |
| 20260507122707 | 6 | 53 | 0.0 | 0.0 | 0.00 | 1.02 | 1.02 | 93 | 1001.2 |
| 20260507122203 | 5 | 219 | 0.0 | 0.0 | 0.00 | 1.02 | 1.02 | 93 | 1001.6 |
| 20260507121659 | 6 | 196 | 0.0 | 0.0 | 0.00 | 1.02 | 1.02 | 93 | 1001.6 |
| 20260507121155 | 6 | 213 | 0.0 | 0.0 | 0.00 | 1.02 | 1.02 | 93 | 1001.6 |
| 20260507120651 | 6 | 236 | 0.0 | 0.0 | 0.00 | 1.02 | 1.02 | 93 | 1001.6 |
| 20260507120148 | 6 | 188 | 0.0 | 0.0 | 0.00 | 1.02 | 1.02 | 93 | 1001.2 |
| 20260507115645 | 6 | 192 | 0.0 | 0.0 | 0.00 | 1.02 | 1.02 | 93 | 1001.2 |
| 20260507115140 | 5 | 185 | 0.0 | 0.0 | 0.00 | 1.02 | 1.02 | 93 | 1001.2 |
| 20260507114636 | 5 | 170 | 0.0 | 0.0 | 0.00 | 1.02 | 1.02 | 93 | 1001.2 |
| 20260507114134 | 5 | 241 | 0.0 | 8.0 | 0.00 | 1.02 | 1.02 | 93 | 1001.2 |
| 20260507113631 | 5 | 213 | 0.0 | 0.0 | 0.00 | 1.02 | 1.02 | 93 | 1000.9 |
| 20260507113128 | 5 | 186 | 0.0 | 0.0 | 0.00 | 1.02 | 1.02 | 93 | 1000.9 |
| 20260507112626 | 5 | 203 | 0.0 | 0.0 | 0.00 | 1.02 | 1.02 | 93 | 1000.9 |
| 20260507112122 | 5 | 249 | 0.0 | 0.0 | 0.00 | 1.02 | 1.02 | 93 | 1000.4 |
| 20260507111619 | 5 | 16 | 0.0 | 0.0 | 0.00 | 1.02 | 1.02 | 93 | 1000.4 |
| 20260507111116 | 5 | 180 | 0.0 | 3.2 | 0.00 | 1.02 | 1.02 | 93 | 1000.9 |
| 20260507110612 | 5 | 278 | 0.0 | 0.0 | 0.00 | 1.02 | 1.02 | 93 | 1001.2 |
| 20260507110109 | 5 | 200 | 0.0 | 0.0 | 0.00 | 1.02 | 1.02 | 93 | 1001.2 |
| 20260507105606 | 5 | 221 | 0.0 | 0.0 | 0.00 | 1.02 | 1.02 | 93 | 1001.2 |
| 20260507105102 | 5 | 207 | 0.0 | 0.0 | 0.00 | 1.02 | 1.02 | 93 | 1001.2 |
| 20260507104600 | 5 | 277 | 0.0 | 3.2 | 0.00 | 1.02 | 1.02 | 93 | 1001.2 |
| 20260507104055 | 5 | 285 | 0.0 | 0.0 | 0.00 | 1.02 | 1.02 | 93 | 1001.2 |
| 20260507103552 | 5 | 166 | 0.0 | 0.0 | 0.00 | 1.02 | 1.02 | 93 | 1001.2 |
| 20260507103049 | 5 | 193 | 0.0 | 0.0 | 0.00 | 1.02 | 1.02 | 93 | 1001.2 |
| 20260507102545 | 5 | 293 | 0.0 | 0.0 | 0.00 | 1.02 | 1.02 | 93 | 1001.2 |
| 20260507102041 | 5 | 197 | 0.0 | 0.0 | 0.00 | 1.02 | 1.02 | 93 | 1000.9 |
| 20260507101537 | 5 | 173 | 0.0 | 0.0 | 0.00 | 1.02 | 1.02 | 93 | 1001.2 |
| 20260507101033 | 5 | 197 | 0.0 | 0.0 | 0.00 | 1.02 | 1.02 | 93 | 1001.2 |
| 20260507100531 | 5 | 197 | 0.0 | 0.0 | 0.00 | 1.02 | 1.02 | 93 | 1000.9 |
| 20260507100029 | 5 | 235 | 0.0 | 0.0 | 0.00 | 1.02 | 1.02 | 93 | 1000.9 |
| 20260507095527 | 5 | 262 | 0.0 | 0.0 | 0.00 | 1.02 | 1.02 | 93 | 1000.9 |
| 20260507095023 | 5 | 209 | 0.0 | 0.0 | 0.00 | 1.02 | 1.02 | 93 | 1000.4 |
| 20260507094519 | 5 | 209 | 0.0 | 0.0 | 0.00 | 1.02 | 1.02 | 93 | 1000.4 |
| 20260507094016 | 5 | 191 | 0.0 | 0.0 | 0.00 | 1.02 | 1.02 | 93 | 1000.4 |
| 20260507093514 | 5 | 207 | 0.0 | 0.0 | 0.00 | 1.02 | 1.02 | 93 | 1000.4 |
| 20260507093012 | 5 | 220 | 0.0 | 0.0 | 0.18 | 1.02 | 1.02 | 93 | 1000.4 |
| 20260507092508 | 5 | 14 | 0.0 | 0.0 | 0.00 | 0.99 | 0.99 | 93 | 1000.4 |
| 20260507092005 | 5 | 168 | 0.0 | 0.0 | 0.00 | 0.99 | 0.99 | 93 | 1000.4 |
| 20260507091502 | 5 | 189 | 0.0 | 0.0 | 0.18 | 0.99 | 0.99 | 93 | 1000.4 |
| 20260507090958 | 5 | 291 | 0.0 | 0.0 | 0.18 | 0.97 | 0.97 | 93 | 1000.4 |
| 20260507090454 | 5 | 174 | 0.0 | 0.0 | 0.18 | 0.97 | 0.97 | 93 | 1000.4 |
| 20260507085950 | 5 | 184 | 0.0 | 0.0 | 0.00 | 0.94 | 0.94 | 93 | 1000.4 |
| 20260507085448 | 5 | 284 | 0.0 | 0.0 | 0.00 | 0.94 | 0.94 | 93 | 1000.4 |
| 20260507084944 | 5 | 212 | 0.0 | 0.0 | 0.18 | 0.94 | 0.94 | 93 | 1000.4 |
| 20260507084441 | 5 | 271 | 0.0 | 0.0 | 0.18 | 0.94 | 0.94 | 93 | 1000.4 |
| 20260507083938 | 5 | 234 | 0.0 | 0.0 | 0.00 | 0.89 | 0.89 | 93 | 1000.1 |
| 20260507083435 | 5 | 213 | 0.0 | 0.0 | 0.00 | 0.89 | 0.89 | 93 | 1000.4 |
| 20260507082931 | 5 | 217 | 0.0 | 0.0 | 0.00 | 0.89 | 0.89 | 93 | 1000.4 |
| 20260507082427 | 5 | 324 | 0.0 | 0.0 | 0.18 | 0.89 | 0.89 | 93 | 1000.4 |
| 20260507081924 | 5 | 170 | 0.0 | 0.0 | 0.18 | 0.89 | 0.89 | 93 | 1000.4 |
| 20260507081420 | 5 | 146 | 0.0 | 0.0 | 0.18 | 0.86 | 0.86 | 93 | 1000.4 |
| 20260507080917 | 5 | 190 | 0.0 | 0.0 | 0.00 | 0.86 | 0.86 | 93 | 1000.4 |
| 20260507080413 | 5 | 195 | 0.0 | 0.0 | 0.00 | 0.84 | 0.84 | 93 | 1000.4 |
| 20260507075909 | 5 | 259 | 0.0 | 0.0 | 0.00 | 0.84 | 0.84 | 93 | 1000.1 |
| 20260507075405 | 5 | 307 | 0.0 | 8.0 | 0.00 | 0.84 | 0.84 | 93 | 1000.1 |
| 20260507074901 | 5 | 182 | 0.0 | 0.0 | 0.00 | 0.84 | 0.84 | 93 | 1000.1 |
| 20260507074358 | 5 | 142 | 0.0 | 0.0 | 0.00 | 0.84 | 0.84 | 93 | 1000.1 |
| 20260507073856 | 5 | 235 | 0.0 | 0.0 | 0.00 | 0.84 | 0.84 | 93 | 1000.1 |
| 20260507073352 | 5 | 182 | 0.0 | 0.0 | 0.00 | 0.84 | 0.84 | 93 | 1000.1 |
| 20260507072849 | 5 | 184 | 0.0 | 0.0 | 0.00 | 0.84 | 0.84 | 93 | 1000.1 |
| 20260507072347 | 5 | 256 | 0.0 | 0.0 | 0.18 | 0.84 | 0.84 | 93 | 1000.1 |
| 20260507071844 | 5 | 143 | 0.0 | 0.0 | 0.18 | 0.84 | 0.84 | 93 | 1000.1 |
| 20260507071342 | 5 | 196 | 0.0 | 0.0 | 0.18 | 0.81 | 0.81 | 93 | 1000.1 |
| 20260507070837 | 5 | 222 | 0.0 | 0.0 | 0.18 | 0.81 | 0.81 | 93 | 1000.4 |
| 20260507070335 | 5 | 15 | 0.0 | 0.0 | 0.18 | 0.79 | 0.79 | 93 | 1000.4 |
| 20260507065832 | 5 | 163 | 0.0 | 0.0 | 0.18 | 0.76 | 0.76 | 93 | 1000.4 |
| 20260507065328 | 5 | 207 | 0.0 | 0.0 | 0.36 | 0.76 | 0.76 | 93 | 1000.4 |
| 20260507064826 | 5 | 190 | 0.0 | 0.0 | 0.18 | 0.71 | 0.71 | 93 | 1000.4 |
| 20260507064324 | 5 | 180 | 0.0 | 0.0 | 0.00 | 0.69 | 0.69 | 93 | 1000.4 |
| 20260507063821 | 5 | 195 | 0.0 | 0.0 | 0.18 | 0.69 | 0.69 | 93 | 1000.4 |
| 20260507063318 | 5 | 182 | 0.0 | 0.0 | 0.00 | 0.66 | 0.66 | 93 | 1000.1 |
| 20260507062815 | 5 | 287 | 0.0 | 0.0 | 0.18 | 0.66 | 0.66 | 93 | 1000.4 |
| 20260507062312 | 5 | 207 | 0.0 | 0.0 | 0.18 | 0.64 | 0.64 | 93 | 1000.4 |
| 20260507061810 | 6 | 198 | 0.0 | 0.0 | 0.36 | 0.64 | 0.64 | 93 | 1000.4 |
| 20260507061308 | 6 | 210 | 0.0 | 0.0 | 0.36 | 0.61 | 0.61 | 93 | 1000.4 |
| 20260507060806 | 6 | 40 | 0.0 | 0.0 | 0.53 | 0.56 | 0.56 | 93 | 1000.4 |
| 20260507060302 | 6 | 153 | 0.0 | 3.2 | 0.53 | 0.51 | 0.51 | 93 | 1000.4 |
| 20260507055759 | 6 | 155 | 0.0 | 0.0 | 0.53 | 0.48 | 0.48 | 93 | 1000.4 |
| 20260507055254 | 6 | 243 | 0.0 | 0.0 | 0.36 | 0.43 | 0.43 | 93 | 1000.9 |
| 20260507054750 | 6 | 215 | 0.0 | 0.0 | 0.18 | 0.38 | 0.38 | 93 | 1000.9 |
| 20260507054247 | 6 | 256 | 0.0 | 0.0 | 0.18 | 0.36 | 0.36 | 93 | 1000.9 |
| 20260507053744 | 6 | 156 | 0.0 | 0.0 | 0.18 | 0.33 | 0.33 | 93 | 1000.9 |
| 20260507053242 | 6 | 237 | 0.0 | 0.0 | 0.36 | 0.33 | 0.33 | 93 | 1001.2 |
| 20260507052741 | 6 | 242 | 0.0 | 0.0 | 0.18 | 0.30 | 0.30 | 93 | 1000.9 |
| 20260507052237 | 6 | 266 | 0.0 | 0.0 | 0.18 | 0.28 | 0.28 | 93 | 1000.9 |
| 20260507051735 | 6 | 23 | 0.0 | 0.0 | 0.18 | 0.28 | 0.28 | 93 | 1000.9 |
| 20260507051231 | 6 | 107 | 0.0 | 0.0 | 0.18 | 0.23 | 0.23 | 93 | 1000.9 |
| 20260507050728 | 6 | 14 | 0.0 | 3.2 | 0.18 | 0.23 | 0.23 | 93 | 1000.9 |
| 20260507050225 | 6 | 307 | 0.0 | 3.2 | 0.18 | 0.20 | 0.20 | 93 | 1001.2 |
| 20260507045722 | 6 | 246 | 0.0 | 0.0 | 0.18 | 0.20 | 0.20 | 93 | 1001.2 |
| 20260507045218 | 6 | 204 | 0.0 | 0.0 | 0.00 | 0.18 | 0.18 | 93 | 1001.2 |
| 20260507044716 | 6 | 236 | 0.0 | 0.0 | 0.18 | 0.18 | 0.18 | 93 | 1000.9 |
| 20260507044212 | 6 | 287 | 0.0 | 3.2 | 0.18 | 0.15 | 0.15 | 93 | 1000.9 |
| 20260507043708 | 6 | 155 | 0.0 | 0.0 | 0.18 | 0.15 | 0.15 | 93 | 1001.2 |
| 20260507043205 | 7 | 247 | 0.0 | 0.0 | 0.18 | 0.13 | 0.13 | 93 | 1001.2 |
| 20260507042702 | 7 | 45 | 0.0 | 3.2 | 0.18 | 0.10 | 0.10 | 93 | 1001.2 |
| 20260507042156 | 7 | 294 | 0.0 | 0.0 | 0.36 | 0.10 | 0.10 | 93 | 1001.2 |
| 20260507041654 | 7 | 192 | 0.0 | 0.0 | 0.18 | 0.05 | 0.05 | 93 | 1001.6 |
| 20260507041150 | 7 | 116 | 0.0 | 0.0 | 0.18 | 0.03 | 0.03 | 93 | 1001.6 |
| 20260507040648 | 7 | 196 | 0.0 | 0.0 | 0.18 | 0.03 | 0.03 | 93 | 1001.6 |
| 20260507040144 | 7 | 191 | 0.0 | 0.0 | 0.18 | 2.79 | 2.79 | 93 | 1001.6 |
| 20260507035640 | 7 | 335 | 0.0 | 0.0 | 0.18 | 2.79 | 2.79 | 93 | 1001.6 |
| 20260507035136 | 7 | 171 | 0.0 | 0.0 | 0.00 | 2.77 | 2.77 | 93 | 1001.2 |
| 20260507034633 | 7 | 166 | 0.0 | 0.0 | 0.00 | 2.77 | 2.77 | 93 | 1001.6 |
| 20260507034130 | 7 | 3 | 0.0 | 0.0 | 0.00 | 2.77 | 2.77 | 93 | 1001.2 |
| 20260507033629 | 7 | 345 | 0.0 | 0.0 | 0.00 | 2.77 | 2.77 | 93 | 1001.2 |
| 20260507033126 | 7 | 355 | 0.0 | 3.2 | 0.00 | 2.77 | 2.77 | 93 | 1001.6 |
| 20260507032623 | 7 | 163 | 0.0 | 0.0 | 0.00 | 2.77 | 2.77 | 93 | 1001.6 |
| 20260507032119 | 7 | 15 | 0.0 | 0.0 | 0.00 | 2.77 | 2.77 | 93 | 1001.6 |
| 20260507031616 | 7 | 5 | 0.0 | 0.0 | 0.00 | 2.77 | 2.77 | 93 | 1001.6 |
| 20260507031112 | 7 | 330 | 0.0 | 0.0 | 0.00 | 2.77 | 2.77 | 93 | 1001.6 |
| 20260507030609 | 7 | 185 | 0.0 | 0.0 | 0.00 | 2.77 | 2.77 | 93 | 1001.6 |
| 20260507030107 | 7 | 30 | 0.0 | 0.0 | 0.00 | 2.77 | 2.77 | 93 | 1001.6 |
| 20260507025604 | 7 | 57 | 0.0 | 0.0 | 0.00 | 2.77 | 2.77 | 93 | 1001.6 |
| 20260507025101 | 7 | 16 | 0.0 | 0.0 | 0.00 | 2.77 | 2.77 | 93 | 1001.6 |
| 20260507024559 | 7 | 272 | 0.0 | 0.0 | 0.00 | 2.77 | 2.77 | 93 | 1001.9 |
| 20260507024056 | 7 | 7 | 0.0 | 0.0 | 0.18 | 2.77 | 2.77 | 93 | 1002.2 |
| 20260507023551 | 7 | 7 | 0.0 | 0.0 | 0.18 | 2.77 | 2.77 | 93 | 1002.2 |
| 20260507023049 | 7 | 132 | 0.0 | 0.0 | 0.00 | 2.72 | 2.72 | 93 | 1002.6 |
| 20260507022546 | 7 | 213 | 0.0 | 0.0 | 0.00 | 2.72 | 2.72 | 93 | 1002.6 |
| 20260507022041 | 7 | 15 | 0.0 | 0.0 | 0.00 | 2.72 | 2.72 | 93 | 1002.6 |
| 20260507021537 | 7 | 344 | 0.0 | 0.0 | 0.18 | 2.72 | 2.72 | 93 | 1002.6 |
| 20260507021034 | 7 | 354 | 0.0 | 0.0 | 0.36 | 2.72 | 2.72 | 93 | 1002.6 |
| 20260507020531 | 7 | 203 | 0.0 | 0.0 | 0.18 | 2.69 | 2.69 | 93 | 1002.6 |
| 20260507020027 | 7 | 46 | 0.0 | 0.0 | 0.18 | 2.67 | 2.67 | 93 | 1002.6 |
| 20260507015526 | 7 | 356 | 0.0 | 0.0 | 0.18 | 2.67 | 2.67 | 93 | 1002.9 |
| 20260507015023 | 7 | 82 | 0.0 | 0.0 | 0.00 | 2.64 | 2.64 | 93 | 1002.9 |
| 20260507014520 | 7 | 185 | 0.0 | 0.0 | 0.00 | 2.64 | 2.64 | 93 | 1003.2 |
| 20260507014015 | 7 | 299 | 0.0 | 0.0 | 0.18 | 2.64 | 2.64 | 93 | 1003.2 |
| 20260507013512 | 7 | 69 | 0.0 | 3.2 | 0.18 | 2.64 | 2.64 | 93 | 1003.2 |
| 20260507013010 | 7 | 255 | 0.0 | 0.0 | 0.00 | 2.62 | 2.62 | 93 | 1003.2 |
| 20260507012507 | 7 | 188 | 0.0 | 0.0 | 0.00 | 2.62 | 2.62 | 93 | 1003.2 |
| 20260507012003 | 7 | 353 | 0.0 | 0.0 | 0.00 | 2.62 | 2.62 | 93 | 1003.2 |
| 20260507011500 | 7 | 308 | 0.0 | 0.0 | 0.00 | 2.62 | 2.62 | 93 | 1003.2 |
| 20260507010956 | 7 | 353 | 0.0 | 0.0 | 0.00 | 2.62 | 2.62 | 93 | 1003.2 |
| 20260507010450 | 7 | 4 | 0.0 | 0.0 | 0.00 | 2.62 | 2.62 | 93 | 1003.2 |
| 20260507005947 | 7 | 307 | 0.0 | 0.0 | 0.18 | 2.62 | 2.62 | 93 | 1003.2 |
| 20260507005445 | 7 | 189 | 0.0 | 3.2 | 0.18 | 2.62 | 2.62 | 93 | 1003.2 |
| 20260507004941 | 7 | 224 | 0.0 | 0.0 | 0.00 | 2.59 | 2.59 | 93 | 1003.6 |
| 20260507004438 | 7 | 255 | 0.0 | 0.0 | 0.00 | 2.59 | 2.59 | 93 | 1003.6 |
| 20260507003936 | 7 | 198 | 0.0 | 0.0 | 0.00 | 2.59 | 2.59 | 93 | 1003.6 |
| 20260507003431 | 7 | 212 | 0.0 | 0.0 | 0.00 | 2.59 | 2.59 | 93 | 1003.6 |
| 20260507002926 | 7 | 116 | 0.0 | 0.0 | 0.00 | 2.59 | 2.59 | 93 | 1003.6 |
| 20260507002422 | 7 | 348 | 0.0 | 0.0 | 0.00 | 2.59 | 2.59 | 93 | 1003.6 |
| 20260507001920 | 7 | 293 | 0.0 | 0.0 | 0.00 | 2.59 | 2.59 | 93 | 1003.2 |
| 20260507001416 | 7 | 327 | 0.0 | 0.0 | 0.00 | 2.59 | 2.59 | 93 | 1003.2 |
| 20260507000914 | 7 | 11 | 0.0 | 0.0 | 0.18 | 2.59 | 2.59 | 93 | 1003.2 |
| 20260507000409 | 7 | 215 | 0.0 | 0.0 | 0.18 | 2.59 | 2.59 | 93 | 1003.6 |
| 20260506235905 | 7 | 2 | 0.0 | 0.0 | 0.00 | 2.54 | 2.54 | 93 | 1003.6 |
| 20260506235403 | 7 | 199 | 0.0 | 0.0 | 0.00 | 2.54 | 2.54 | 93 | 1003.6 |
| 20260506234858 | 7 | 220 | 0.0 | 0.0 | 0.00 | 2.54 | 2.54 | 93 | 1003.6 |
| 20260506234356 | 7 | 2 | 0.0 | 0.0 | 0.00 | 2.54 | 2.54 | 93 | 1003.2 |
| 20260506233853 | 7 | 185 | 0.0 | 0.0 | 0.18 | 2.54 | 2.54 | 93 | 1003.2 |
| 20260506233349 | 7 | 36 | 0.0 | 0.0 | 0.00 | 2.54 | 2.54 | 93 | 1003.2 |
| 20260506232846 | 7 | 230 | 0.0 | 0.0 | 0.00 | 2.51 | 2.51 | 93 | 1003.2 |
| 20260506232342 | 7 | 132 | 0.0 | 0.0 | 0.00 | 2.51 | 2.51 | 93 | 1003.2 |
| 20260506231838 | 7 | 126 | 0.0 | 0.0 | 0.00 | 2.51 | 2.51 | 93 | 1003.2 |
| 20260506231336 | 7 | 155 | 0.0 | 0.0 | 0.18 | 2.51 | 2.51 | 93 | 1003.2 |
| 20260506230833 | 7 | 274 | 0.0 | 0.0 | 0.18 | 2.51 | 2.51 | 93 | 1003.6 |
| 20260506230330 | 7 | 110 | 0.0 | 0.0 | 0.18 | 2.49 | 2.49 | 93 | 1003.2 |
| 20260506225826 | 7 | 34 | 0.0 | 0.0 | 0.36 | 2.49 | 2.49 | 93 | 1003.6 |
| 20260506225324 | 7 | 227 | 0.0 | 0.0 | 0.18 | 2.46 | 2.46 | 93 | 1003.6 |
| 20260506224821 | 7 | 359 | 0.0 | 0.0 | 0.18 | 2.44 | 2.44 | 93 | 1003.6 |
| 20260506224318 | 7 | 103 | 0.0 | 0.0 | 0.36 | 2.44 | 2.44 | 93 | 1003.6 |
| 20260506223814 | 7 | 73 | 0.0 | 0.0 | 0.18 | 2.39 | 2.39 | 93 | 1003.2 |
| 20260506223309 | 7 | 140 | 0.0 | 0.0 | 0.00 | 2.36 | 2.36 | 93 | 1003.6 |
| 20260506222807 | 7 | 309 | 0.0 | 0.0 | 0.36 | 2.36 | 2.36 | 93 | 1003.6 |
| 20260506222305 | 7 | 22 | 0.0 | 0.0 | 0.18 | 2.34 | 2.34 | 93 | 1003.6 |
| 20260506221800 | 7 | 112 | 0.0 | 0.0 | 0.18 | 2.31 | 2.31 | 93 | 1003.9 |
| 20260506221258 | 7 | 235 | 0.0 | 0.0 | 0.18 | 2.31 | 2.31 | 93 | 1003.9 |
| 20260506220755 | 7 | 247 | 0.0 | 0.0 | 0.00 | 2.29 | 2.29 | 93 | 1004.3 |
| 20260506220249 | 7 | 3 | 0.0 | 0.0 | 0.18 | 2.29 | 2.29 | 93 | 1003.9 |
| 20260506215747 | 7 | 222 | 0.0 | 0.0 | 0.18 | 2.29 | 2.29 | 93 | 1003.9 |
| 20260506215243 | 7 | 159 | 0.0 | 0.0 | 0.00 | 2.26 | 2.26 | 93 | 1004.3 |
| 20260506214739 | 7 | 192 | 0.0 | 0.0 | 0.18 | 2.26 | 2.26 | 93 | 1004.3 |
| 20260506214236 | 7 | 269 | 0.0 | 0.0 | 0.18 | 2.26 | 2.26 | 93 | 1004.3 |
| 20260506213735 | 7 | 289 | 0.0 | 0.0 | 0.18 | 2.21 | 2.21 | 93 | 1004.3 |
| 20260506213231 | 7 | 108 | 0.0 | 0.0 | 0.18 | 2.21 | 2.21 | 93 | 1004.3 |
| 20260506212729 | 7 | 324 | 0.0 | 0.0 | 0.18 | 2.18 | 2.18 | 93 | 1004.3 |
| 20260506212224 | 7 | 162 | 0.0 | 0.0 | 0.18 | 2.16 | 2.16 | 93 | 1004.3 |
| 20260506211719 | 7 | 169 | 0.0 | 0.0 | 0.36 | 2.16 | 2.16 | 93 | 1004.3 |
| 20260506211210 | 7 | 354 | 0.0 | 0.0 | 0.18 | 2.13 | 2.13 | 93 | 1004.3 |
| 20260506210708 | 7 | 216 | 0.0 | 0.0 | 0.18 | 2.11 | 2.11 | 93 | 1004.3 |
| 20260506210204 | 7 | 54 | 0.0 | 0.0 | 0.18 | 2.11 | 2.11 | 93 | 1004.3 |
| 20260506205701 | 7 | 219 | 0.0 | 0.0 | 0.18 | 2.06 | 2.06 | 93 | 1004.3 |
| 20260506205156 | 7 | 14 | 0.0 | 0.0 | 0.36 | 2.06 | 2.06 | 93 | 1004.3 |
| 20260506204654 | 7 | 4 | 0.0 | 0.0 | 0.18 | 2.03 | 2.03 | 93 | 1004.3 |
| 20260506204150 | 7 | 45 | 0.0 | 0.0 | 0.18 | 2.01 | 2.01 | 93 | 1004.3 |
| 20260506203649 | 7 | 168 | 0.0 | 0.0 | 0.18 | 2.01 | 2.01 | 93 | 1004.6 |
| 20260506203146 | 7 | 207 | 0.0 | 0.0 | 0.18 | 1.98 | 1.98 | 93 | 1004.3 |
| 20260506202644 | 7 | 3 | 0.0 | 0.0 | 0.36 | 1.98 | 1.98 | 93 | 1004.3 |
| 20260506202139 | 7 | 167 | 0.0 | 0.0 | 0.36 | 1.96 | 1.96 | 93 | 1004.3 |
| 20260506201636 | 7 | 9 | 0.0 | 0.0 | 0.36 | 1.93 | 1.93 | 93 | 1004.6 |
| 20260506201133 | 7 | 119 | 0.0 | 0.0 | 0.36 | 1.88 | 1.88 | 93 | 1004.3 |
| 20260506200629 | 7 | 135 | 0.0 | 0.0 | 0.36 | 1.85 | 1.85 | 93 | 1004.6 |
| 20260506200126 | 7 | 133 | 0.0 | 0.0 | 0.53 | 1.83 | 1.83 | 93 | 1004.6 |
| 20260506195623 | 7 | 217 | 0.0 | 0.0 | 0.36 | 1.78 | 1.78 | 93 | 1004.9 |
| 20260506195119 | 7 | 314 | 0.0 | 0.0 | 0.36 | 1.75 | 1.75 | 93 | 1004.9 |
| 20260506194617 | 8 | 99 | 0.0 | 0.0 | 0.18 | 1.70 | 1.70 | 93 | 1004.6 |
| 20260506194113 | 8 | 140 | 0.0 | 0.0 | 0.18 | 1.68 | 1.68 | 93 | 1004.3 |
| 20260506193611 | 7 | 81 | 0.0 | 0.0 | 0.18 | 1.68 | 1.68 | 93 | 1004.6 |
| 20260506193108 | 7 | 113 | 0.0 | 0.0 | 0.18 | 1.65 | 1.65 | 93 | 1004.3 |
| 20260506192605 | 7 | 201 | 0.0 | 0.0 | 0.18 | 1.63 | 1.63 | 92 | 1004.6 |
| 20260506192101 | 8 | 112 | 0.0 | 0.0 | 0.18 | 1.63 | 1.63 | 93 | 1004.9 |
| 20260506191557 | 7 | 15 | 0.0 | 0.0 | 0.18 | 1.63 | 1.63 | 92 | 1004.9 |
| 20260506191053 | 7 | 227 | 0.0 | 0.0 | 0.18 | 1.60 | 1.60 | 93 | 1005.7 |
| 20260506190551 | 7 | 48 | 0.0 | 0.0 | 0.36 | 1.60 | 1.60 | 92 | 1005.4 |
| 20260506190048 | 8 | 56 | 0.0 | 0.0 | 0.36 | 1.55 | 1.55 | 93 | 1005.4 |
| 20260506185545 | 7 | 188 | 0.0 | 0.0 | 0.18 | 1.52 | 1.52 | 92 | 1005.7 |
| 20260506185041 | 8 | 204 | 0.0 | 0.0 | 0.18 | 1.50 | 1.50 | 93 | 1005.4 |
| 20260506184539 | 7 | 206 | 0.0 | 0.0 | 0.18 | 1.50 | 1.50 | 92 | 1005.4 |
| 20260506184036 | 7 | 229 | 0.0 | 0.0 | 0.18 | 1.47 | 1.47 | 92 | 1004.9 |
| 20260506183532 | 8 | 203 | 0.0 | 0.0 | 0.18 | 1.47 | 1.47 | 92 | 1005.4 |
| 20260506183028 | 7 | 327 | 0.0 | 0.0 | 0.36 | 1.45 | 1.45 | 92 | 1005.7 |
| 20260506182526 | 8 | 154 | 0.0 | 0.0 | 0.18 | 1.37 | 1.37 | 92 | 1006.1 |
| 20260506182023 | 8 | 227 | 0.0 | 0.0 | 0.18 | 1.37 | 1.37 | 92 | 1006.1 |
| 20260506181521 | 8 | 147 | 0.0 | 0.0 | 0.18 | 1.35 | 1.35 | 92 | 1005.7 |
| 20260506181018 | 8 | 102 | 0.0 | 0.0 | 0.18 | 1.35 | 1.35 | 92 | 1005.4 |
| 20260506180514 | 7 | 166 | 0.0 | 0.0 | 0.18 | 1.32 | 1.32 | 92 | 1005.7 |
| 20260506180011 | 7 | 110 | 0.0 | 0.0 | 0.18 | 1.32 | 1.32 | 92 | 1005.7 |
| 20260506175507 | 7 | 114 | 0.0 | 0.0 | 0.36 | 1.32 | 1.32 | 92 | 1006.1 |
| 20260506175004 | 8 | 212 | 0.0 | 0.0 | 0.36 | 1.30 | 1.30 | 92 | 1006.4 |
| 20260506174503 | 7 | 68 | 0.0 | 0.0 | 0.36 | 1.27 | 1.27 | 92 | 1006.4 |
| 20260506173958 | 8 | 40 | 0.0 | 0.0 | 0.18 | 1.22 | 1.22 | 92 | 1006.4 |
| 20260506173456 | 8 | 177 | 0.0 | 0.0 | 0.18 | 1.19 | 1.19 | 92 | 1006.4 |
| 20260506172952 | 8 | 93 | 0.0 | 0.0 | 0.18 | 1.17 | 1.17 | 92 | 1006.4 |
| 20260506172450 | 8 | 173 | 0.0 | 0.0 | 0.36 | 1.17 | 1.17 | 92 | 1007.1 |
| 20260506171946 | 8 | 198 | 0.0 | 0.0 | 0.36 | 1.14 | 1.14 | 92 | 1006.7 |
| 20260506171443 | 8 | 223 | 0.0 | 0.0 | 0.18 | 1.12 | 1.12 | 92 | 1007.1 |
| 20260506170941 | 8 | 189 | 0.0 | 0.0 | 0.18 | 1.09 | 1.09 | 92 | 1007.1 |
| 20260506170438 | 8 | 190 | 0.0 | 0.0 | 0.36 | 1.09 | 1.09 | 92 | 1007.1 |
| 20260506165936 | 8 | 184 | 0.0 | 0.0 | 0.36 | 1.02 | 1.02 | 92 | 1007.4 |
| 20260506165434 | 8 | 190 | 0.0 | 0.0 | 0.36 | 1.02 | 1.02 | 92 | 1007.4 |
| 20260506164930 | 8 | 197 | 0.0 | 0.0 | 0.18 | 0.97 | 0.97 | 92 | 1007.4 |
| 20260506164426 | 8 | 186 | 0.0 | 0.0 | 0.53 | 0.94 | 0.94 | 92 | 1007.1 |
| 20260506163919 | 8 | 180 | 0.0 | 0.0 | 0.53 | 0.89 | 0.89 | 92 | 1007.1 |
| 20260506163414 | 8 | 226 | 0.0 | 0.0 | 0.36 | 0.86 | 0.86 | 92 | 1007.1 |
| 20260506162909 | 8 | 249 | 0.0 | 0.0 | 0.36 | 0.81 | 0.81 | 92 | 1007.1 |
| 20260506162407 | 8 | 174 | 0.0 | 0.0 | 0.18 | 0.79 | 0.79 | 92 | 1006.7 |
| 20260506161904 | 8 | 175 | 0.0 | 0.0 | 0.00 | 0.76 | 0.76 | 92 | 1006.7 |
| 20260506161402 | 8 | 4 | 0.0 | 0.0 | 0.00 | 0.76 | 0.76 | 92 | 1006.4 |
| 20260506160859 | 8 | 177 | 0.0 | 0.0 | 0.00 | 0.76 | 0.76 | 92 | 1006.7 |
| 20260506160356 | 8 | 18 | 0.0 | 0.0 | 0.18 | 0.76 | 0.76 | 92 | 1007.1 |
| 20260506155854 | 8 | 181 | 0.0 | 0.0 | 0.00 | 0.76 | 0.76 | 92 | 1007.1 |